This is the latest recevied weather packets stored in our database for station/object DB0RV-13. If no packets are shown the sender has not sent any weather packets the latest 10 day(s).
| Time | Temp. | Humidity | Pressure | Rain* | Wind** | Luminosity | Snow |
|---|---|---|---|---|---|---|---|
| 1778165702 | 13.89° C | 62% | 1013.2 hPa | - | - | - | - |
| 1778165402 | 13.89° C | 64% | 1013.1 hPa | - | - | - | - |
| 1778165102 | 13.89° C | 64% | 1013.2 hPa | - | - | - | - |
| 1778164801 | 13.89° C | 65% | 1013.1 hPa | - | - | - | - |
| 1778164502 | 13.89° C | 65% | 1013.1 hPa | - | - | - | - |
| 1778164201 | 13.89° C | 64% | 1013.1 hPa | - | - | - | - |
| 1778163902 | 13.33° C | 64% | 1013.2 hPa | - | - | - | - |
| 1778163601 | 13.89° C | 65% | 1013.2 hPa | - | - | - | - |
| 1778163302 | 13.33° C | 65% | 1012.9 hPa | - | - | - | - |
| 1778163002 | 13.33° C | 65% | 1012.8 hPa | - | - | - | - |
| 1778162702 | 13.89° C | 66% | 1013 hPa | - | - | - | - |
| 1778162402 | 13.89° C | 66% | 1013.1 hPa | - | - | - | - |
| 1778162101 | 13.89° C | 66% | 1013 hPa | - | - | - | - |
| 1778161802 | 13.89° C | 65% | 1013.2 hPa | - | - | - | - |
| 1778161501 | 14.44° C | 62% | 1013.1 hPa | - | - | - | - |
| 1778161202 | 13.89° C | 64% | 1013.2 hPa | - | - | - | - |
| 1778160901 | 13.89° C | 66% | 1013.1 hPa | - | - | - | - |
| 1778160603 | 14.44° C | 64% | 1013.1 hPa | - | - | - | - |
| 1778160301 | 13.89° C | 63% | 1013.2 hPa | - | - | - | - |
| 1778160002 | 14.44° C | 63% | 1013.2 hPa | - | - | - | - |
| 1778159701 | 14.44° C | 58% | 1013.3 hPa | - | - | - | - |
| 1778159402 | 15° C | 57% | 1013.3 hPa | - | - | - | - |
| 1778159102 | 14.44° C | 60% | 1013.2 hPa | - | - | - | - |
| 1778158803 | 13.89° C | 61% | 1013.2 hPa | - | - | - | - |
| 1778158502 | 13.89° C | 63% | 1013.2 hPa | - | - | - | - |
* Rain since midnight (hover to see other rain measurements)
** Current wind speed in m/s (hover to see current wind gust speed)